Regional Weather Roundup
Issued by NWS

Home | Current Version | Previous Version | Graphics & Text | Print | Product List | Glossary On
Versions: 1 2 3 4 5 6 7 8 9 10 11 12 13 14 15 16 17 18 19 20 21 22 23 24 25 26 27 28 29 30 31 32 33 34 35 36 37 38 39 40 41 42 43 44 45 46 47 48 49 50
905
ASUS43 KDMX 230601
RWRIA

WEATHER ROUNDUP FOR IOWA
NATIONAL WEATHER SERVICE DES MOINES IA
1200 AM CST FRI FEB 23 2018

NOTE: "FAIR" INDICATES FEW OR NO CLOUDS BELOW 12,000 FEET WITH NO
SIGNIFICANT WEATHER AND/OR OBSTRUCTIONS TO VISIBILITY.

* - THESE STATIONS ARE NOT NWS STATIONS...THUS NOT UNDER NWS
QUALITY CONTROL.  THEY ALSO DO NOT REPORT WEATHER SUCH
AS PRECIPITATION OR FOG.

IAZ001>003-012>014-020>022-031>034-043>046-230700-
   NORTHWEST IOWA

CITY           SKY/WX    TMP DP  RH WIND       PRES   REMARKS
CARROLL *      LGT SNOW  32  32 100 SW7       30.13F WCI  26
CHEROKEE *     FLURRIES  27  27 100 W5        30.13F WCI  22
DENISON *      LGT SNOW  30  30 100 NW6       30.13F VSB 3/4 WCI  24
LE MARS *      CLOUDY    27  25  93 SW3       30.14S
ORANGE CITY *  LGT SNOW  27  27 100 W7        30.12F WCI  19
SHELDON *      CLOUDY    27  27 100 W7        30.10F WCI  19
SIOUX CITY     CLOUDY    27  25  92 W5        30.15F WCI  22
6HR MIN TEMP:  26; 6HR MAX TEMP:  27; 6HR PCP:  0.24;

SPENCER        LGT SNOW  28  26  92 SW5       30.11F FOG     WCI  23
6HR MIN TEMP:  27; 6HR MAX TEMP:  29; 6HR PCP: TRACE;

STORM LAKE *   LGT SNOW  28  28 100 CALM      30.10F
$$

IAZ055>058-069>071-079>083-090>094-230700-
   SOUTHWEST IOWA

CITY           SKY/WX    TMP DP  RH WIND       PRES   REMARKS
ATLANTIC *     CLOUDY    32  32 100 SW6       30.15S FOG     WCI  26
AUDUBON *      LGT SNOW  32  28  86 CALM      30.14F
CLARINDA *     CLOUDY    32  32 100 SW3       30.19R FOG
COUNCIL BLFS * CLOUDY    30  32 100 SW5       30.14F FOG     WCI  25
CRESTON *      CLOUDY    32  32 100 S5        30.14F FOG     WCI  27
HARLAN  *      LGT SNOW  32  32 100 W6        30.17F WCI  26
LAMONI         CLOUDY    32  31  96 W7        30.17R FOG     WCI  26
6HR MIN TEMP:  31; 6HR MAX TEMP:  32; 6HR PCP:  0.17;

RED OAK *      CLOUDY    32  32 100 W6        30.16S FOG     WCI  26
SHENANDOAH *   CLOUDY    32  32 100 W5        30.18S FOG     WCI  27
$$

IAZ047>049-059>061-072>074-084-230700-
   CENTRAL IOWA

CITY           SKY/WX    TMP DP  RH WIND       PRES   REMARKS
AMES           LGT RAIN  33  31  92 W5        30.16F FOG     WCI  29
6HR MIN TEMP:  32; 6HR MAX TEMP:  33; 6HR PCP:  0.14;

ANKENY *       LGT RAIN  32  32 100 CALM      30.17F
BOONE *        LGT RAIN  32  32 100 MISG      30.13F
CHARITON *     LGT RAIN  32  32 100 W6        30.16R WCI  26
DES MOINES     LGT RAIN  33  32  96 W5        30.16F FOG     WCI  29
6HR MIN TEMP:  32; 6HR MAX TEMP:  33; 6HR PCP:  0.32;

GRINNELL*      RAIN      34  34  99 S5        30.15R WCI  30
KNOXVILLE *    LGT RAIN  34  34 100 W6        30.15R WCI  29
MARSHALLTOWN   LGT RAIN  34  34 100 SW7       30.15S FOG     WCI  28
6HR MIN TEMP:  32; 6HR MAX TEMP:  34; 6HR PCP:  0.16;

NEWTON *       LGT RAIN  34  34 100 SW5       30.15F VSB 3/4 WCI  30
PELLA *        RAIN      34  33  99 W5        30.17F WCI  30
$$

IAZ004>006-015-016-023>025-035-036-230700-
   NORTH CENTRAL IOWA

CITY           SKY/WX    TMP DP  RH WIND       PRES   REMARKS
CLARION *      CLOUDY    32  32 100 SW7       30.14F FOG     WCI  26
ESTHERVILLE    LGT SNOW  29  28  96 S7        30.10F FOG     WCI  22
6HR MIN TEMP:  26; 6HR MAX TEMP:  29; 6HR PCP: TRACE;

FORT DODGE *   LGT SNOW  32  31  96 S6        30.13F FOG     WCI  26
MASON CITY     CLOUDY    32  31  96 S6        30.16F FOG     WCI  26
6HR MIN TEMP:  28; 6HR MAX TEMP:  32; 6HR PCP:  0.09;

FOREST CITY *  LGT SNOW  32  32 100 SE5       30.13F WCI  27
WEBSTER CITY * LGT RAIN  32  32 100 SE5       30.11F WCI  27
IOWA FALLS *   RAIN      33  33  98 SW7       30.16S WCI  27
$$

IAZ007>011-017>019-026>030-037>042-050>054-066-230700-
   NORTHEAST IOWA

CITY           SKY/WX    TMP DP  RH WIND       PRES   REMARKS
CEDAR RAPIDS   LGT RAIN  36  50 100 SE13      30.13F VSB 1/2 WCI  27
6HR MIN TEMP:  33; 6HR MAX TEMP:  36; 6HR PCP: TRACE;

CHARLES CITY * LGT RAIN  34  34 100 S9        30.15R WCI  26
CLINTON *      MIX PCPN  35  34  96 E13       30.18F VSB 1   WCI  26
DECORAH *      LGT RAIN  32  32 100 SE15G22   30.12F WCI  22
DUBUQUE        CLOUDY    33  31  92 SE13      30.16F FOG     WCI  24
6HR MIN TEMP:  31; 6HR MAX TEMP:  33;

MONTICELLO *   CLOUDY    34  34 100 SE16G22   30.15F FOG     WCI  23
OELWEIN *      FOG       34  34 100 SE15      30.14S VSB 3/4 WCI  24
WATERLOO       LGT RAIN  33  33 100 SE10      30.13F FOG     WCI  25
6HR MIN TEMP:  31; 6HR MAX TEMP:  33; 6HR PCP:  0.05;

$$

IAZ064-065-067-068-078-230700-
   EAST CENTRAL IOWA

CITY           SKY/WX    TMP DP  RH WIND       PRES   REMARKS
DAVENPORT      FOG       37  35  92 E9        30.19F VSB 1/2 WCI  30
6HR MIN TEMP:  37; 6HR MAX TEMP:  37; 6HR PCP: TRACE;

IOWA CITY      LGT RAIN  37  35  92 SE8       30.16F VSB 3/4 WCI  31
6HR MIN TEMP:  36; 6HR MAX TEMP:  37; 6HR PCP:  0.02;

MT. PLEASANT * LGT RAIN  37  37 100 SE8       30.14F VSB 1/2 WCI  31
MUSCATINE *    CLOUDY    39  39 100 SE9       30.17F FOG     WCI  33
QUAD CITIES    FOG       37  37 100 E7        30.17F VSB 3/4 WCI  32
6HR MIN TEMP:  37; 6HR MAX TEMP:  38; 6HR PCP:  0.01;

$$

IAZ062-063-075>077-085>089-095>099-230700-
   SOUTHEAST IOWA

CITY           SKY/WX    TMP DP  RH WIND       PRES   REMARKS
BURLINGTON     LGT RAIN  38  38 100 SE5       30.16F VSB 1/2 WCI  34
6HR MIN TEMP:  36; 6HR MAX TEMP:  39; 6HR PCP: TRACE;

FAIRFIELD *    FOG       37  37 100 SE9       30.12F VSB 1/4 WCI  31
FORT MADISON * LGT RAIN  37  37 100 SE3       30.16F VSB 1/2
KEOKUK *       LGT RAIN  37  37 100 E5        30.15S VSB 1/4 WCI  34
OSKALOOSA *    RAIN      34  33  99 CALM      30.13F
OTTUMWA        LGT RAIN  36  36 100 S8        30.12F FOG     WCI  30
6HR MIN TEMP:  34; 6HR MAX TEMP:  37; 6HR PCP: TRACE;

WASHINGTON *   FOG       37  37 100 SE9       30.15F VSB 1/4 WCI  31
$$

ABBREVIATIONS USED IN REMARKS
   TC - TEMPERATURES IN CELSIUS
  WCI - WIND CHILL INDEX
   HX - HEAT INDEX
  VSB - VISIBILITY
$$





USA.gov is the U.S. government's official web portal to all federal, state and local government web resources and services.